This is the latest recevied weather packets stored in our database for station/object KE7JVX-3. If no packets are shown the sender has not sent any weather packets the latest 10 day(s).
| Time | Temp. | Humidity | Pressure | Rain* | Wind** | Luminosity | Snow |
|---|---|---|---|---|---|---|---|
| 1777775067 | 9.44° C | 27% | 1012.5 hPa | 0 mm | - | - | - |
| 1777774470 | 9.44° C | 27% | 1012.5 hPa | 0 mm | - | - | - |
| 1777773867 | 9.44° C | 26% | 1012.5 hPa | 0 mm | - | - | - |
| 1777773267 | 10° C | 26% | 1012.5 hPa | 0 mm | - | - | - |
| 1777772667 | 10° C | 25% | 1012.5 hPa | 0 mm | - | - | - |
| 1777772067 | 10.56° C | 24% | 1012.5 hPa | 0 mm | - | - | - |
| 1777771467 | 10.56° C | 24% | 1012.5 hPa | 0 mm | - | - | - |
| 1777770868 | 11.11° C | 23% | 1012.6 hPa | 0 mm | - | - | - |
| 1777770267 | 11.67° C | 20% | 1012.6 hPa | 0 mm | - | - | - |
| 1777769668 | 12.22° C | 15% | 1012.6 hPa | 0 mm | - | - | - |
| 1777769067 | 12.22° C | 15% | 1012.6 hPa | 0 mm | - | - | - |
| 1777768467 | 12.78° C | 17% | 1012.6 hPa | 0 mm | - | - | - |
| 1777767867 | 12.78° C | 16% | 1012.6 hPa | 0 mm | - | - | - |
| 1777767267 | 12.78° C | 16% | 1012.6 hPa | 0 mm | - | - | - |
| 1777766667 | 13.33° C | 15% | 1012.7 hPa | 0 mm | - | - | - |
| 1777766068 | 12.78° C | 16% | 1012.6 hPa | 0 mm | - | - | - |
| 1777765467 | 12.22° C | 16% | 1012.6 hPa | 0 mm | - | - | - |
| 1777764872 | 12.22° C | 17% | 1012.6 hPa | 0 mm | - | - | - |
| 1777764267 | 12.78° C | 12% | 1012.6 hPa | 0 mm | - | - | - |
| 1777763667 | 13.33° C | 12% | 1012.6 hPa | 0 mm | - | - | - |
| 1777763235 | 13.33° C | 13% | 1012.6 hPa | 0 mm | - | - | - |
| 1777763067 | 13.33° C | 13% | 1012.6 hPa | 0 mm | - | - | - |
| 1777762468 | 13.33° C | 13% | 1012.6 hPa | 0 mm | - | - | - |
| 1777761867 | 13.33° C | 18% | 1012.7 hPa | 0 mm | - | - | - |
| 1777761269 | 13.33° C | 17% | 1012.7 hPa | 0 mm | - | - | - |
* Rain latest hour (hover to see other rain measurements)
** Current wind speed in m/s (hover to see current wind gust speed)